EW2817 Weather Reports


time (UTC)temp
F
wind
direction
speed
knots
gust
knots
rain 1hr
in
rain 24hr
in
rain mn
in
humidity
%
barometer
mb
20260507101355 64 0 0.0 0.0 0.02 0.11 0.09 95 986.5
20260507095854 64 0 0.0 0.0 0.01 0.10 0.08 95 986.1
20260507094354 64 0 0.0 0.0 0.02 0.10 0.08 95 986.5
20260507092852 64 0 0.0 0.0 0.01 0.09 0.07 95 986.4
20260507091352 65 0 0.0 0.0 0.01 0.09 0.07 95 986.1
20260507085852 65 0 0.0 0.0 0.01 0.09 0.07 95 986.3
20260507084350 65 0 0.0 0.0 0.01 0.08 0.06 95 986.6
20260507082848 65 0 0.0 0.0 0.01 0.08 0.06 95 986.7
20260507081347 65 0 0.0 0.0 0.01 0.08 0.06 95 986.7
20260507075848 65 0 0.0 0.0 0.01 0.08 0.06 95 986.7
20260507074346 65 0 0.0 0.0 0.00 0.07 0.05 95 987.0
20260507072843 65 0 0.0 0.0 0.01 0.07 0.05 95 986.9
20260507071344 65 0 0.0 0.0 0.01 0.07 0.05 95 987.1
20260507065844 65 0 0.0 0.0 0.01 0.07 0.05 95 987.2
20260507064342 65 0 0.0 0.0 0.01 0.07 0.05 95 987.4
20260507062841 65 0 0.0 0.0 0.00 0.06 0.04 95 988.3
20260507061339 65 0 0.0 0.0 0.01 0.06 0.04 95 988.2
20260507055839 65 0 0.0 0.0 0.01 0.06 0.04 95 987.9
20260507054339 65 0 0.0 0.0 0.02 0.06 0.04 95 987.9
20260507051340 65 0 0.0 0.0 0.02 0.05 0.03 95 988.3
20260507044338 65 0 0.0 0.0 0.03 0.04 0.02 95 988.5
20260507042835 66 0 0.0 0.0 0.02 0.03 0.01 94 988.8
20260507041333 66 0 0.0 0.0 0.02 0.03 0.01 94 989.3
20260507035833 67 0 0.0 0.0 0.01 0.02 0.02 94 989.7
20260507034331 67 0 0.0 0.0 0.01 0.01 0.01 93 989.3
20260507032830 67 0 0.0 0.0 0.01 0.01 0.01 93 988.5
20260507031327 67 0 0.0 0.0 0.01 0.01 0.01 92 988.8
20260507025823 68 0 0.0 0.0 0.01 0.01 0.01 92 988.7
20260507021319 69 0 0.0 0.0 0.00 0.00 0.00 89 988.0
20260507015819 69 0 0.0 0.0 0.00 0.00 0.00 88 987.8
20260507014320 69 0 0.0 0.0 0.00 0.00 0.00 88 987.9
20260507012818 69 0 0.0 0.0 0.00 0.00 0.00 87 988.2
20260507011319 69 0 0.0 0.0 0.00 0.00 0.00 86 988.0
20260507005816 70 0 0.0 0.0 0.00 0.00 0.00 85 988.2
20260507004315 70 0 0.0 0.0 0.00 0.00 0.00 84 988.0
20260507002814 70 0 0.0 0.0 0.00 0.00 0.00 84 987.9
20260507001313 71 0 0.0 0.0 0.00 0.00 0.00 83 988.2
20260506235812 71 0 0.0 0.0 0.00 0.00 0.00 82 988.0
20260506234311 71 0 0.0 0.0 0.00 0.00 0.00 81 988.1
20260506232809 71 0 0.0 0.0 0.00 0.00 0.00 81 988.2
20260506225808 72 0 0.0 0.0 0.00 0.00 0.00 80 988.2
20260506224306 72 0 0.0 0.0 0.00 0.00 0.00 80 988.5
20260506222806 72 0 0.0 0.0 0.00 0.00 0.00 80 988.3
20260506221304 72 0 0.0 0.0 0.00 0.00 0.00 79 988.0
20260506215802 72 0 0.0 0.0 0.00 0.00 0.00 80 987.9
20260506214302 72 0 0.0 0.0 0.00 0.00 0.00 80 987.8
20260506211300 72 0 0.0 0.0 0.00 0.00 0.00 79 988.1
20260506205758 71 0 0.0 0.0 0.00 0.00 0.00 81 988.1
20260506204256 71 0 0.0 0.0 0.00 0.00 0.00 82 988.0
20260506202756 71 0 0.0 0.0 0.00 0.00 0.00 84 987.8
20260506201256 70 0 0.0 0.0 0.00 0.00 0.00 85 987.7
20260506195756 70 0 0.0 0.0 0.00 0.00 0.00 85 988.2
20260506194257 69 0 0.0 0.0 0.00 0.00 0.00 87 988.1
20260506191255 69 0 0.0 0.0 0.00 0.00 0.00 86 988.4
20260506185756 69 0 0.0 0.0 0.00 0.00 0.00 84 989.3
20260506181255 70 0 0.0 0.0 0.00 0.00 0.00 79 990.5
20260506175755 70 0 0.0 0.0 0.00 0.00 0.00 80 990.3
20260506174254 69 0 0.0 0.0 0.00 0.00 0.00 79 990.4
20260506172754 69 0 0.0 0.0 0.00 0.00 0.00 81 990.4
20260506171253 68 0 0.0 0.0 0.00 0.00 0.00 83 990.4
20260506165750 67 0 0.0 0.0 0.00 0.00 0.00 83 990.6
20260506164250 67 0 0.0 0.0 0.00 0.00 0.00 82 990.7
20260506161248 67 0 0.0 0.0 0.00 0.00 0.00 78 990.6
20260506155748 67 0 0.0 0.0 0.00 0.00 0.00 79 990.7
20260506154247 67 0 0.0 0.0 0.00 0.00 0.00 78 990.7
20260506152743 66 0 0.0 0.0 0.00 0.00 0.00 78 990.5
20260506151239 66 0 0.0 0.0 0.00 0.00 0.00 78 990.9
20260506145740 66 0 0.0 0.0 0.00 0.00 0.00 77 990.5
20260506144237 66 0 0.0 0.0 0.00 0.00 0.00 77 990.5
20260506141235 65 0 0.0 0.0 0.00 0.00 0.00 78 990.0
20260506134236 64 0 0.0 0.0 0.00 0.00 0.00 79 990.4
20260506125729 64 0 0.0 0.0 0.00 0.00 0.00 80 991.0
20260506124229 64 0 0.0 0.0 0.00 0.00 0.00 80 990.7
20260506122728 64 0 0.0 0.0 0.00 0.00 0.00 79 990.4
20260506121228 63 0 0.0 0.0 0.00 0.00 0.00 81 990.2
20260506115725 63 0 0.0 0.0 0.00 0.00 0.00 81 990.0
20260506114223 63 0 0.0 0.0 0.00 0.00 0.00 81 989.8
20260506111221 62 0 0.0 0.0 0.00 0.00 0.00 80 990.0
20260506105720 62 0 0.0 0.0 0.00 0.00 0.00 80 989.9
20260506104217 62 0 0.0 0.0 0.00 0.00 0.00 80 989.9
20260506102716 62 0 0.0 0.0 0.00 0.00 0.00 80 989.7